Year,Month,Day,Hour,Minute,Value (Times are PST for windspeed in km/hr)
2020,11,08,00,00,9.00
2020,11,08,00,01,10.50
2020,11,08,00,02,6.90
2020,11,08,00,03,3.60
2020,11,08,00,04,5.80
2020,11,08,00,05,10.30
2020,11,08,00,06,5.50
2020,11,08,00,07,7.60
2020,11,08,00,08,10.70
2020,11,08,00,09,6.80
2020,11,08,00,10,12.20
2020,11,08,00,11,6.80
2020,11,08,00,12,5.70
2020,11,08,00,13,5.30
2020,11,08,00,14,5.80
2020,11,08,00,15,9.50
2020,11,08,00,16,5.70
2020,11,08,00,17,7.20
2020,11,08,00,18,10.20
2020,11,08,00,19,9.30
2020,11,08,00,20,10.00
2020,11,08,00,21,5.60
2020,11,08,00,22,5.70
2020,11,08,00,23,9.30
2020,11,08,00,24,3.60
2020,11,08,00,25,9.30
2020,11,08,00,26,6.40
2020,11,08,00,27,12.30
2020,11,08,00,28,13.90
2020,11,08,00,29,12.20
2020,11,08,00,30,12.60
2020,11,08,00,31,12.00
2020,11,08,00,32,11.60
2020,11,08,00,33,10.30
2020,11,08,00,34,8.90
2020,11,08,00,35,7.30
2020,11,08,00,36,5.30
2020,11,08,00,37,7.20
2020,11,08,00,38,8.10
2020,11,08,00,39,8.40
2020,11,08,00,40,10.80
2020,11,08,00,41,11.20
2020,11,08,00,42,11.50
2020,11,08,00,43,9.30
2020,11,08,00,44,8.50
2020,11,08,00,45,7.10
2020,11,08,00,46,7.00
2020,11,08,00,47,7.10
2020,11,08,00,48,12.00
2020,11,08,00,49,11.70
2020,11,08,00,50,15.70
2020,11,08,00,51,13.00
2020,11,08,00,52,10.80
2020,11,08,00,53,6.30
2020,11,08,00,54,4.10
2020,11,08,00,55,5.20
2020,11,08,00,56,8.30
2020,11,08,00,57,5.70
2020,11,08,00,58,4.00
2020,11,08,00,59,6.40
2020,11,08,01,00,8.50
2020,11,08,01,01,3.20
2020,11,08,01,02,2.80
2020,11,08,01,03,3.00
2020,11,08,01,04,3.00
2020,11,08,01,05,3.90
2020,11,08,01,06,6.30
2020,11,08,01,07,2.50
2020,11,08,01,08,3.10
2020,11,08,01,09,3.80
2020,11,08,01,10,3.50
2020,11,08,01,11,2.50
2020,11,08,01,12,4.90
2020,11,08,01,13,8.10
2020,11,08,01,14,8.00
2020,11,08,01,15,5.90
2020,11,08,01,16,4.90
2020,11,08,01,17,2.60
2020,11,08,01,18,5.90
2020,11,08,01,19,2.20
2020,11,08,01,20,6.40
2020,11,08,01,21,6.40
2020,11,08,01,22,6.80
2020,11,08,01,23,12.10
2020,11,08,01,24,7.40
2020,11,08,01,25,6.80
2020,11,08,01,26,5.90
2020,11,08,01,27,5.50
2020,11,08,01,28,7.70
2020,11,08,01,29,4.90
2020,11,08,01,30,7.00
2020,11,08,01,31,6.70
2020,11,08,01,32,3.60
2020,11,08,01,33,8.50
2020,11,08,01,34,9.80
2020,11,08,01,35,5.20
2020,11,08,01,36,7.30
2020,11,08,01,37,8.50
2020,11,08,01,38,4.00
2020,11,08,01,39,2.10
2020,11,08,01,40,5.40
2020,11,08,01,41,8.00
2020,11,08,01,42,8.80
2020,11,08,01,43,6.90
2020,11,08,01,44,5.00
2020,11,08,01,45,7.20
2020,11,08,01,46,7.00
2020,11,08,01,47,4.00
2020,11,08,01,48,12.10
2020,11,08,01,49,12.50
2020,11,08,01,50,10.10
2020,11,08,01,51,10.00
2020,11,08,01,52,6.10
2020,11,08,01,53,5.90
2020,11,08,01,54,9.70
2020,11,08,01,55,6.90
2020,11,08,01,56,7.40
2020,11,08,01,57,7.00
2020,11,08,01,58,9.70
2020,11,08,01,59,13.90
2020,11,08,02,00,10.80
2020,11,08,02,01,14.30
2020,11,08,02,02,11.50
2020,11,08,02,03,9.60
2020,11,08,02,04,12.00
2020,11,08,02,05,10.30
2020,11,08,02,06,11.70
2020,11,08,02,07,11.50
2020,11,08,02,08,10.00
2020,11,08,02,09,7.70
2020,11,08,02,10,7.50
2020,11,08,02,11,12.60
2020,11,08,02,12,8.70
2020,11,08,02,13,7.00
2020,11,08,02,14,8.90
2020,11,08,02,15,11.20
2020,11,08,02,16,8.00
2020,11,08,02,17,6.40
2020,11,08,02,18,6.40
2020,11,08,02,19,11.30
2020,11,08,02,20,8.80
2020,11,08,02,21,7.50
2020,11,08,02,22,11.20
2020,11,08,02,23,9.40
2020,11,08,02,24,7.30
2020,11,08,02,25,10.50
2020,11,08,02,26,7.00
2020,11,08,02,27,12.20
2020,11,08,02,28,17.10
2020,11,08,02,29,11.70
2020,11,08,02,30,8.90
2020,11,08,02,31,7.60
2020,11,08,02,32,10.50
2020,11,08,02,33,12.00
2020,11,08,02,34,8.40
2020,11,08,02,35,8.10
2020,11,08,02,36,6.70
2020,11,08,02,37,7.00
2020,11,08,02,38,11.20
2020,11,08,02,39,5.90
2020,11,08,02,40,8.40
2020,11,08,02,41,7.40
2020,11,08,02,42,4.30
2020,11,08,02,43,6.00
2020,11,08,02,44,12.00
2020,11,08,02,45,10.90
2020,11,08,02,46,5.70
2020,11,08,02,47,6.40
2020,11,08,02,48,6.70
2020,11,08,02,49,8.60
2020,11,08,02,50,6.60
2020,11,08,02,51,8.60
2020,11,08,02,52,9.90
2020,11,08,02,53,9.50
2020,11,08,02,54,7.70
2020,11,08,02,55,6.40
2020,11,08,02,56,6.50
2020,11,08,02,57,11.30
2020,11,08,02,58,6.90
2020,11,08,02,59,10.30
2020,11,08,03,00,11.40
2020,11,08,03,01,13.80
2020,11,08,03,02,7.60
2020,11,08,03,03,8.90
2020,11,08,03,04,6.90
2020,11,08,03,05,3.60
2020,11,08,03,06,10.40
2020,11,08,03,07,7.50
2020,11,08,03,08,9.70
2020,11,08,03,09,11.70
2020,11,08,03,10,12.60
2020,11,08,03,11,11.10
2020,11,08,03,12,9.70
2020,11,08,03,13,10.10
2020,11,08,03,14,15.80
2020,11,08,03,15,12.60
2020,11,08,03,16,19.40
2020,11,08,03,17,13.40
2020,11,08,03,18,10.50
2020,11,08,03,19,8.40
2020,11,08,03,20,15.90
2020,11,08,03,21,13.30
2020,11,08,03,22,12.90
2020,11,08,03,23,13.10
2020,11,08,03,24,12.40
2020,11,08,03,25,9.80
2020,11,08,03,26,11.30
2020,11,08,03,27,12.80
2020,11,08,03,28,12.30
2020,11,08,03,29,11.30
2020,11,08,03,30,13.40
2020,11,08,03,31,15.00
2020,11,08,03,32,19.30
2020,11,08,03,33,18.00
2020,11,08,03,34,14.00
2020,11,08,03,35,16.30
2020,11,08,03,36,19.50
2020,11,08,03,37,15.30
2020,11,08,03,38,17.10
2020,11,08,03,39,15.70
2020,11,08,03,40,17.40
2020,11,08,03,41,17.70
2020,11,08,03,42,18.60
2020,11,08,03,43,16.30
2020,11,08,03,44,17.20
2020,11,08,03,45,10.90
2020,11,08,03,46,14.90
2020,11,08,03,47,20.80
2020,11,08,03,48,14.10
2020,11,08,03,49,17.90
2020,11,08,03,50,13.40
2020,11,08,03,51,18.50
2020,11,08,03,52,20.60
2020,11,08,03,53,17.00
2020,11,08,03,54,18.80
2020,11,08,03,55,12.50
2020,11,08,03,56,19.30
2020,11,08,03,57,14.50
2020,11,08,03,58,13.40
2020,11,08,03,59,14.30
2020,11,08,04,00,15.30
2020,11,08,04,01,15.10
2020,11,08,04,02,16.20
2020,11,08,04,03,16.00
2020,11,08,04,04,11.10
2020,11,08,04,06,10.10
2020,11,08,04,07,13.50
2020,11,08,04,08,16.80
2020,11,08,04,09,16.30
2020,11,08,04,10,13.50
2020,11,08,04,11,11.90
2020,11,08,04,12,16.90
2020,11,08,04,13,12.10
2020,11,08,04,14,12.30
2020,11,08,04,15,16.60
2020,11,08,04,16,14.40
2020,11,08,04,17,15.00
2020,11,08,04,18,17.70
2020,11,08,04,19,14.50
2020,11,08,04,20,13.30
2020,11,08,04,21,15.00
2020,11,08,04,22,14.40
2020,11,08,04,23,14.80
2020,11,08,04,24,9.50
2020,11,08,04,25,12.40
2020,11,08,04,26,13.80
2020,11,08,04,27,10.00
2020,11,08,04,28,14.60
2020,11,08,04,29,15.30
2020,11,08,04,30,15.70
2020,11,08,04,31,12.90
2020,11,08,04,32,8.00
2020,11,08,04,33,11.80
2020,11,08,04,34,10.10
2020,11,08,04,35,12.00
2020,11,08,04,36,13.80
2020,11,08,04,37,11.30
2020,11,08,04,38,14.10
2020,11,08,04,39,17.20
2020,11,08,04,40,12.40
2020,11,08,04,41,11.50
2020,11,08,04,42,8.80
2020,11,08,04,43,10.70
2020,11,08,04,44,12.00
2020,11,08,04,45,17.10
2020,11,08,04,46,11.90
2020,11,08,04,47,13.40
2020,11,08,04,48,15.30
2020,11,08,04,49,16.30
2020,11,08,04,50,16.90
2020,11,08,04,51,9.30
2020,11,08,04,52,9.40
2020,11,08,04,53,14.00
2020,11,08,04,54,12.90
2020,11,08,04,55,21.00
2020,11,08,04,56,15.30
2020,11,08,04,57,11.60
2020,11,08,04,58,14.20
2020,11,08,04,59,13.00
2020,11,08,05,00,11.00
2020,11,08,05,01,8.60
2020,11,08,05,02,10.40
2020,11,08,05,03,8.60
2020,11,08,05,04,10.20
2020,11,08,05,05,10.70
2020,11,08,05,06,7.30
2020,11,08,05,07,8.10
2020,11,08,05,08,5.70
2020,11,08,05,09,10.50
2020,11,08,05,10,5.60
2020,11,08,05,11,10.60
2020,11,08,05,12,11.70
2020,11,08,05,13,9.80
2020,11,08,05,14,12.10
2020,11,08,05,15,9.80
2020,11,08,05,16,11.80
2020,11,08,05,17,10.10
2020,11,08,05,18,14.00
2020,11,08,05,19,13.10
2020,11,08,05,20,12.60
2020,11,08,05,21,11.60
2020,11,08,05,22,10.00
2020,11,08,05,23,5.00
2020,11,08,05,24,8.20
2020,11,08,05,25,12.90
2020,11,08,05,26,13.20
2020,11,08,05,27,10.20
2020,11,08,05,28,8.80
2020,11,08,05,29,12.90
2020,11,08,05,30,10.40
2020,11,08,05,31,8.70
2020,11,08,05,32,12.90
2020,11,08,05,33,11.40
2020,11,08,05,34,9.70
2020,11,08,05,35,10.10
2020,11,08,05,36,12.10
2020,11,08,05,37,14.70
2020,11,08,05,38,7.90
2020,11,08,05,39,9.30
2020,11,08,05,40,11.10
2020,11,08,05,41,12.50
2020,11,08,05,42,7.50
2020,11,08,05,43,7.20
2020,11,08,05,44,11.60
2020,11,08,05,45,11.00
2020,11,08,05,46,11.10
2020,11,08,05,47,9.60
2020,11,08,05,48,8.60
2020,11,08,05,49,5.90
2020,11,08,05,50,3.70
2020,11,08,05,51,7.20
2020,11,08,05,52,11.00
2020,11,08,05,53,7.60
2020,11,08,05,54,3.70
2020,11,08,05,55,5.30
2020,11,08,05,56,3.90
2020,11,08,05,57,0.60
2020,11,08,05,58,5.80
2020,11,08,05,59,5.40
2020,11,08,06,00,2.50
2020,11,08,06,01,3.30
2020,11,08,06,02,2.40
2020,11,08,06,03,6.40
2020,11,08,06,04,4.10
2020,11,08,06,05,6.10
2020,11,08,06,06,1.90
2020,11,08,06,07,1.10
2020,11,08,06,08,4.30
2020,11,08,06,09,9.70
2020,11,08,06,10,5.30
2020,11,08,06,11,8.70
2020,11,08,06,12,4.70
2020,11,08,06,13,1.90
2020,11,08,06,14,4.10
2020,11,08,06,15,6.70
2020,11,08,06,16,6.40
2020,11,08,06,17,5.30
2020,11,08,06,18,11.10
2020,11,08,06,19,5.00
2020,11,08,06,20,3.50
2020,11,08,06,21,6.40
2020,11,08,06,22,2.10
2020,11,08,06,23,4.00
2020,11,08,06,24,6.20
2020,11,08,06,25,1.10
2020,11,08,06,26,5.10
2020,11,08,06,27,1.30
2020,11,08,06,28,2.10
2020,11,08,06,29,3.60
2020,11,08,06,30,2.70
2020,11,08,06,31,4.30
2020,11,08,06,32,3.10
2020,11,08,06,33,6.00
2020,11,08,06,34,7.70
2020,11,08,06,35,3.70
2020,11,08,06,36,3.50
2020,11,08,06,37,3.50
2020,11,08,06,38,8.10
2020,11,08,06,39,3.10
2020,11,08,06,40,3.40
2020,11,08,06,41,4.60
2020,11,08,06,42,3.20
2020,11,08,06,43,8.50
2020,11,08,06,44,6.70
2020,11,08,06,45,5.60
2020,11,08,06,46,1.90
2020,11,08,06,47,3.10
2020,11,08,06,48,1.90
2020,11,08,06,49,2.80
2020,11,08,06,50,6.40
2020,11,08,06,51,7.40
2020,11,08,06,52,4.10
2020,11,08,06,53,3.20
2020,11,08,06,54,6.90
2020,11,08,06,55,5.40
2020,11,08,06,56,5.40
2020,11,08,06,57,5.40
2020,11,08,06,58,4.00
2020,11,08,06,59,7.00
2020,11,08,07,00,6.00
2020,11,08,07,01,7.70
2020,11,08,07,02,5.40
2020,11,08,07,03,5.10
2020,11,08,07,04,6.90
2020,11,08,07,05,5.60
2020,11,08,07,06,4.60
2020,11,08,07,07,3.20
2020,11,08,07,08,4.20
2020,11,08,07,09,8.30
2020,11,08,07,10,4.70
2020,11,08,07,11,9.70
2020,11,08,07,12,6.30
2020,11,08,07,13,2.20
2020,11,08,07,14,0.60
2020,11,08,07,15,4.10
2020,11,08,07,16,5.50
2020,11,08,07,17,8.90
2020,11,08,07,18,3.10
2020,11,08,07,19,5.10
2020,11,08,07,20,12.60
2020,11,08,07,21,3.80
2020,11,08,07,22,4.80
2020,11,08,07,23,8.70
2020,11,08,07,24,2.90
2020,11,08,07,25,5.80
2020,11,08,07,26,5.00
2020,11,08,07,27,4.70
2020,11,08,07,28,5.70
2020,11,08,07,29,6.10
2020,11,08,07,30,6.40
2020,11,08,07,31,3.70
2020,11,08,07,32,4.90
2020,11,08,07,33,4.30
2020,11,08,07,34,7.20
2020,11,08,07,35,11.20
2020,11,08,07,36,7.40
2020,11,08,07,37,6.40
2020,11,08,07,38,7.80
2020,11,08,07,39,6.40
2020,11,08,07,40,11.10
2020,11,08,07,41,9.30
2020,11,08,07,42,5.80
2020,11,08,07,43,7.00
2020,11,08,07,44,3.90
2020,11,08,07,45,5.60
2020,11,08,07,46,8.40
2020,11,08,07,47,5.50
2020,11,08,07,48,3.90
2020,11,08,07,49,5.60
2020,11,08,07,50,8.60
2020,11,08,07,51,6.00
2020,11,08,07,52,8.20
2020,11,08,07,53,5.20
2020,11,08,07,54,3.00
2020,11,08,07,55,2.20
2020,11,08,07,56,5.10
2020,11,08,07,57,6.40
2020,11,08,07,58,8.20
2020,11,08,07,59,8.20
2020,11,08,08,00,6.90
2020,11,08,08,01,6.30
2020,11,08,08,02,10.60
2020,11,08,08,03,6.90
2020,11,08,08,04,6.70
2020,11,08,08,05,6.80
2020,11,08,08,06,6.50
2020,11,08,08,07,6.00
2020,11,08,08,08,2.40
2020,11,08,08,09,4.50
2020,11,08,08,10,7.80
2020,11,08,08,11,6.30
2020,11,08,08,12,3.50
2020,11,08,08,13,3.40
2020,11,08,08,14,7.60
2020,11,08,08,15,5.60
2020,11,08,08,16,3.10
2020,11,08,08,17,1.90
2020,11,08,08,18,7.00
2020,11,08,08,19,6.40
2020,11,08,08,20,2.70
2020,11,08,08,21,2.40
2020,11,08,08,22,3.10
2020,11,08,08,23,4.10
2020,11,08,08,24,4.90
2020,11,08,08,25,6.40
2020,11,08,08,26,4.10
2020,11,08,08,27,2.10
2020,11,08,08,28,2.80
2020,11,08,08,29,6.30
2020,11,08,08,30,3.90
2020,11,08,08,31,1.50
2020,11,08,08,32,3.40
2020,11,08,08,33,5.50
2020,11,08,08,34,5.00
2020,11,08,08,35,4.20
2020,11,08,08,36,5.00
2020,11,08,08,37,3.10
2020,11,08,08,38,7.10
2020,11,08,08,39,3.50
2020,11,08,08,40,3.40
2020,11,08,08,41,4.60
2020,11,08,08,42,4.80
2020,11,08,08,43,8.00
2020,11,08,08,44,9.00
2020,11,08,08,45,5.00
2020,11,08,08,46,8.60
2020,11,08,08,47,9.00
2020,11,08,08,48,6.90
2020,11,08,08,49,7.10
2020,11,08,08,50,8.60
2020,11,08,08,51,4.60
2020,11,08,08,52,4.00
2020,11,08,08,53,3.60
2020,11,08,08,54,3.60
2020,11,08,08,55,3.30
2020,11,08,08,56,4.40
2020,11,08,08,57,3.70
2020,11,08,08,58,5.80
2020,11,08,08,59,7.90
2020,11,08,09,00,5.90
2020,11,08,09,01,6.20
2020,11,08,09,02,5.60
2020,11,08,09,03,3.80
2020,11,08,09,04,2.90
2020,11,08,09,05,4.80
2020,11,08,09,06,4.50
2020,11,08,09,07,2.10
2020,11,08,09,08,3.40
2020,11,08,09,09,3.00
2020,11,08,09,10,3.20
2020,11,08,09,11,1.70
2020,11,08,09,12,3.90
2020,11,08,09,13,5.00
2020,11,08,09,14,3.00
2020,11,08,09,15,4.80
2020,11,08,09,16,5.80
2020,11,08,09,17,4.20
2020,11,08,09,18,6.90
2020,11,08,09,19,5.40
2020,11,08,09,20,4.20
2020,11,08,09,21,2.70
2020,11,08,09,22,3.40
2020,11,08,09,23,7.10
2020,11,08,09,24,3.40
2020,11,08,09,25,1.50
2020,11,08,09,26,1.70
2020,11,08,09,27,5.50
2020,11,08,09,28,5.60
2020,11,08,09,29,4.20
2020,11,08,09,30,1.70
2020,11,08,09,31,1.70
2020,11,08,09,32,0.50
2020,11,08,09,33,0.40
2020,11,08,09,34,0.00
2020,11,08,09,35,1.40
2020,11,08,09,36,4.00
2020,11,08,09,37,1.30
2020,11,08,09,38,1.30
2020,11,08,09,39,1.50
2020,11,08,09,40,2.60
2020,11,08,09,41,3.00
2020,11,08,09,42,2.60
2020,11,08,09,43,4.30
2020,11,08,09,44,4.60
2020,11,08,09,45,3.80
2020,11,08,09,46,7.70
2020,11,08,09,47,6.20
2020,11,08,09,48,3.70
2020,11,08,09,49,3.10
2020,11,08,09,50,2.70
2020,11,08,09,51,1.00
2020,11,08,09,52,1.40
2020,11,08,09,53,4.10
2020,11,08,09,54,1.20
2020,11,08,09,55,3.30
2020,11,08,09,56,6.90
2020,11,08,09,57,6.40
2020,11,08,09,58,3.10
2020,11,08,09,59,3.00
2020,11,08,10,00,3.40
2020,11,08,10,01,2.30
2020,11,08,10,02,4.90
2020,11,08,10,03,1.50
2020,11,08,10,04,6.00
2020,11,08,10,05,2.30
2020,11,08,10,06,5.20
2020,11,08,10,07,2.60
2020,11,08,10,08,1.60
2020,11,08,10,09,1.90
2020,11,08,10,10,7.40
2020,11,08,10,11,2.10
2020,11,08,10,12,2.60
2020,11,08,10,13,2.30
2020,11,08,10,14,4.40
2020,11,08,10,15,2.90
2020,11,08,10,16,2.50
2020,11,08,10,17,6.70
2020,11,08,10,18,2.90
2020,11,08,10,19,4.50
2020,11,08,10,20,5.70
2020,11,08,10,21,3.90
2020,11,08,10,22,3.20
2020,11,08,10,23,6.00
2020,11,08,10,24,6.50
2020,11,08,10,25,8.00
2020,11,08,10,26,8.40
2020,11,08,10,27,6.10
2020,11,08,10,28,5.30
2020,11,08,10,29,3.00
2020,11,08,10,30,7.10
2020,11,08,10,31,1.90
2020,11,08,10,32,0.10
2020,11,08,10,33,0.10
2020,11,08,10,34,3.80
2020,11,08,10,35,1.40
2020,11,08,10,36,0.00
2020,11,08,10,37,0.10
2020,11,08,10,38,1.40
2020,11,08,10,39,6.10
2020,11,08,10,40,6.90
2020,11,08,10,41,7.70
2020,11,08,10,42,4.30
2020,11,08,10,43,3.20
2020,11,08,10,44,1.40
2020,11,08,10,45,0.00
2020,11,08,10,46,0.00
2020,11,08,10,47,1.00
2020,11,08,10,48,8.30
2020,11,08,10,49,4.70
2020,11,08,10,50,2.10
2020,11,08,10,51,0.20
2020,11,08,10,52,1.90
2020,11,08,10,53,2.60
2020,11,08,10,54,0.20
2020,11,08,10,55,3.00
2020,11,08,10,56,5.50
2020,11,08,10,57,2.30
2020,11,08,10,58,2.90
2020,11,08,10,59,2.20
2020,11,08,11,00,3.20
2020,11,08,11,01,3.40
2020,11,08,11,02,3.40
2020,11,08,11,03,2.90
2020,11,08,11,04,6.70
2020,11,08,11,05,1.00
2020,11,08,11,06,5.50
2020,11,08,11,07,3.10
2020,11,08,11,08,3.70
2020,11,08,11,09,3.90
2020,11,08,11,10,6.40
2020,11,08,11,11,8.20
2020,11,08,11,12,5.20
2020,11,08,11,13,5.30
2020,11,08,11,14,3.80
2020,11,08,11,15,5.70
2020,11,08,11,16,6.70
2020,11,08,11,17,7.10
2020,11,08,11,18,6.10
2020,11,08,11,19,4.60
2020,11,08,11,20,1.40
2020,11,08,11,21,0.20
2020,11,08,11,22,3.70
2020,11,08,11,23,5.30
2020,11,08,11,24,4.40
2020,11,08,11,25,3.50
2020,11,08,11,26,3.10
2020,11,08,11,27,2.40
2020,11,08,11,28,1.00
2020,11,08,11,29,3.10
2020,11,08,11,30,0.00
2020,11,08,11,31,1.30
2020,11,08,11,32,3.20
2020,11,08,11,33,0.70
2020,11,08,11,34,2.30
2020,11,08,11,35,2.90
2020,11,08,11,36,4.70
2020,11,08,11,37,4.50
2020,11,08,11,38,1.40
2020,11,08,11,39,0.50
2020,11,08,11,40,0.30
2020,11,08,11,41,4.80
2020,11,08,11,42,5.70
2020,11,08,11,43,3.90
2020,11,08,11,44,3.00
2020,11,08,11,45,2.30
2020,11,08,11,46,2.80
2020,11,08,11,47,5.70
2020,11,08,11,48,4.70
2020,11,08,11,49,4.70
2020,11,08,11,50,0.70
2020,11,08,11,51,1.50
2020,11,08,11,52,0.80
2020,11,08,11,53,0.60
2020,11,08,11,54,0.20
2020,11,08,11,55,1.00
2020,11,08,11,56,3.80
2020,11,08,11,57,1.90
2020,11,08,11,58,5.60
2020,11,08,11,59,2.00
2020,11,08,12,00,2.20
2020,11,08,12,01,3.10
2020,11,08,12,02,5.40
2020,11,08,12,03,1.60
2020,11,08,12,04,1.90
2020,11,08,12,05,3.20
2020,11,08,12,06,2.60
2020,11,08,12,07,3.30
2020,11,08,12,08,1.20
2020,11,08,12,09,0.90
2020,11,08,12,10,0.00
2020,11,08,12,11,1.20
2020,11,08,12,12,2.10
2020,11,08,12,13,6.70
2020,11,08,12,14,5.10
2020,11,08,12,15,5.30
2020,11,08,12,16,0.90
2020,11,08,12,17,0.90
2020,11,08,12,18,3.20
2020,11,08,12,19,1.60
2020,11,08,12,20,0.60
2020,11,08,12,21,3.60
2020,11,08,12,22,2.50
2020,11,08,12,23,1.40
2020,11,08,12,24,3.60
2020,11,08,12,25,2.70
2020,11,08,12,26,4.40
2020,11,08,12,27,5.70
2020,11,08,12,28,5.60
2020,11,08,12,29,5.20
2020,11,08,12,30,3.70
2020,11,08,12,31,5.20
2020,11,08,12,32,5.30
2020,11,08,12,33,2.90
2020,11,08,12,34,3.50
2020,11,08,12,35,5.40
2020,11,08,12,36,4.40
2020,11,08,12,37,3.60
2020,11,08,12,38,2.10
2020,11,08,12,39,3.00
2020,11,08,12,40,2.30
2020,11,08,12,41,0.90
2020,11,08,12,42,0.80
2020,11,08,12,43,2.30
2020,11,08,12,44,2.90
2020,11,08,12,45,2.20
2020,11,08,12,46,3.70
2020,11,08,12,47,3.90
2020,11,08,12,48,7.20
2020,11,08,12,49,5.70
2020,11,08,12,50,6.70
2020,11,08,12,51,6.80
2020,11,08,12,52,6.40
2020,11,08,12,53,5.70
2020,11,08,12,54,1.50
2020,11,08,12,55,1.40
2020,11,08,12,56,2.50
2020,11,08,12,57,0.20
2020,11,08,12,58,1.00
2020,11,08,12,59,5.60
2020,11,08,13,00,4.60
2020,11,08,13,01,1.90
2020,11,08,13,02,4.00
2020,11,08,13,03,3.10
2020,11,08,13,04,3.50
2020,11,08,13,05,3.10
2020,11,08,13,06,3.30
2020,11,08,13,07,2.10
2020,11,08,13,08,2.60
2020,11,08,13,09,2.50
2020,11,08,13,10,4.00
2020,11,08,13,11,4.10
2020,11,08,13,12,4.80
2020,11,08,13,13,4.10
2020,11,08,13,14,4.00
2020,11,08,13,15,6.60
2020,11,08,13,16,7.00
2020,11,08,13,17,7.00
2020,11,08,13,18,5.10
2020,11,08,13,19,3.30
2020,11,08,13,20,3.40
2020,11,08,13,21,3.70
2020,11,08,13,22,3.20
2020,11,08,13,23,3.00
2020,11,08,13,24,3.80
2020,11,08,13,25,3.00
2020,11,08,13,26,3.10
2020,11,08,13,27,5.10
2020,11,08,13,28,3.90
2020,11,08,13,29,4.60
2020,11,08,13,30,3.40
2020,11,08,13,31,4.80
2020,11,08,13,32,2.40
2020,11,08,13,33,0.40
2020,11,08,13,34,2.80
2020,11,08,13,35,3.10
2020,11,08,13,36,4.20
2020,11,08,13,37,4.50
2020,11,08,13,38,5.40
2020,11,08,13,39,3.40
2020,11,08,13,40,3.60
2020,11,08,13,41,3.10
2020,11,08,13,42,1.30
2020,11,08,13,43,3.20
2020,11,08,13,44,5.10
2020,11,08,13,45,5.40
2020,11,08,13,46,2.50
2020,11,08,13,47,1.00
2020,11,08,13,48,1.20
2020,11,08,13,49,0.90
2020,11,08,13,50,3.70
2020,11,08,13,51,3.50
2020,11,08,13,52,1.40
2020,11,08,13,53,0.60
2020,11,08,13,54,3.70
2020,11,08,13,55,1.90
2020,11,08,13,56,0.10
2020,11,08,13,57,0.60
2020,11,08,13,58,0.80
2020,11,08,13,59,5.60
2020,11,08,14,00,3.30
2020,11,08,14,01,2.70
2020,11,08,14,02,0.00
2020,11,08,14,03,3.70
2020,11,08,14,04,3.80
2020,11,08,14,05,2.10
2020,11,08,14,06,2.90
2020,11,08,14,07,3.60
2020,11,08,14,08,3.20
2020,11,08,14,09,2.80
2020,11,08,14,10,2.80
2020,11,08,14,11,0.70
2020,11,08,14,12,1.30
2020,11,08,14,13,1.80
2020,11,08,14,14,3.50
2020,11,08,14,15,1.50
2020,11,08,14,16,5.00
2020,11,08,14,17,2.50
2020,11,08,14,18,2.80
2020,11,08,14,19,3.00
2020,11,08,14,20,3.50
2020,11,08,14,21,2.50
2020,11,08,14,22,1.90
2020,11,08,14,23,1.20
2020,11,08,14,24,0.20
2020,11,08,14,25,0.80
2020,11,08,14,26,0.60
2020,11,08,14,27,2.30
2020,11,08,14,28,2.30
2020,11,08,14,29,0.80
2020,11,08,14,30,0.60
2020,11,08,14,31,0.00
2020,11,08,14,32,5.10
2020,11,08,14,33,1.80
2020,11,08,14,34,0.10
2020,11,08,14,35,1.90
2020,11,08,14,36,3.30
2020,11,08,14,37,4.20
2020,11,08,14,38,1.70
2020,11,08,14,39,4.30
2020,11,08,14,40,4.90
2020,11,08,14,41,2.10
2020,11,08,14,42,0.00
2020,11,08,14,43,1.00
2020,11,08,14,44,2.20
2020,11,08,14,45,3.70
2020,11,08,14,46,3.00
2020,11,08,14,47,2.20
2020,11,08,14,48,2.70
2020,11,08,14,49,4.30
2020,11,08,14,50,3.40
2020,11,08,14,51,2.70
2020,11,08,14,52,3.40
2020,11,08,14,53,3.90
2020,11,08,14,54,3.80
2020,11,08,14,55,4.50
2020,11,08,14,56,3.50
2020,11,08,14,57,4.90
2020,11,08,14,58,5.90
2020,11,08,14,59,1.10
2020,11,08,15,00,0.30
2020,11,08,15,01,4.10
2020,11,08,15,02,3.80
2020,11,08,15,03,0.10
2020,11,08,15,04,1.40
2020,11,08,15,05,4.80
2020,11,08,15,06,0.80
2020,11,08,15,07,2.60
2020,11,08,15,08,1.70
2020,11,08,15,09,0.60
2020,11,08,15,10,1.20
2020,11,08,15,11,0.70
2020,11,08,15,12,1.50
2020,11,08,15,13,0.30
2020,11,08,15,14,0.90
2020,11,08,15,15,1.40
2020,11,08,15,16,3.50
2020,11,08,15,17,2.40
2020,11,08,15,18,2.30
2020,11,08,15,19,0.70
2020,11,08,15,20,1.00
2020,11,08,15,21,1.50
2020,11,08,15,22,0.00
2020,11,08,15,23,0.00
2020,11,08,15,24,0.30
2020,11,08,15,25,2.90
2020,11,08,15,26,2.20
2020,11,08,15,27,0.10
2020,11,08,15,28,0.60
2020,11,08,15,29,2.70
2020,11,08,15,30,3.60
2020,11,08,15,31,1.90
2020,11,08,15,32,3.80
2020,11,08,15,33,0.30
2020,11,08,15,34,0.00
2020,11,08,15,35,0.00
2020,11,08,15,36,0.00
2020,11,08,15,37,0.00
2020,11,08,15,38,0.00
2020,11,08,15,39,0.00
2020,11,08,15,40,0.10
2020,11,08,15,41,0.00
2020,11,08,15,42,0.00
2020,11,08,15,43,0.00
2020,11,08,15,44,0.00
2020,11,08,15,45,0.00
2020,11,08,15,46,0.00
2020,11,08,15,47,0.00
2020,11,08,15,48,0.00
2020,11,08,15,49,0.00
2020,11,08,15,50,0.00
2020,11,08,15,51,0.00
2020,11,08,15,52,0.00
2020,11,08,15,53,0.00
2020,11,08,15,54,0.00
2020,11,08,15,55,0.00
2020,11,08,15,56,0.00
2020,11,08,15,57,0.00
2020,11,08,15,58,1.40
2020,11,08,15,59,2.30
2020,11,08,16,00,1.90
2020,11,08,16,01,0.30
2020,11,08,16,02,0.30
2020,11,08,16,03,1.70
2020,11,08,16,04,1.10
2020,11,08,16,05,0.00
2020,11,08,16,06,0.00
2020,11,08,16,07,0.00
2020,11,08,16,08,0.00
2020,11,08,16,09,0.90
2020,11,08,16,10,3.10
2020,11,08,16,11,2.60
2020,11,08,16,12,1.70
2020,11,08,16,13,0.40
2020,11,08,16,14,0.00
2020,11,08,16,15,0.00
2020,11,08,16,16,0.00
2020,11,08,16,17,0.00
2020,11,08,16,18,0.00
2020,11,08,16,19,1.60
2020,11,08,16,20,2.90
2020,11,08,16,21,3.30
2020,11,08,16,22,3.00
2020,11,08,16,23,1.80
2020,11,08,16,24,1.50
2020,11,08,16,25,2.10
2020,11,08,16,26,0.30
2020,11,08,16,27,0.90
2020,11,08,16,28,2.50
2020,11,08,16,29,2.70
2020,11,08,16,30,2.70
2020,11,08,16,31,1.80
2020,11,08,16,32,1.20
2020,11,08,16,33,0.10
2020,11,08,16,34,0.30
2020,11,08,16,35,1.80
2020,11,08,16,36,1.80
2020,11,08,16,37,2.30
2020,11,08,16,38,2.70
2020,11,08,16,39,2.90
2020,11,08,16,40,2.00
2020,11,08,16,41,2.80
2020,11,08,16,42,3.40
2020,11,08,16,43,2.70
2020,11,08,16,44,2.20
2020,11,08,16,45,3.10
2020,11,08,16,46,3.40
2020,11,08,16,47,2.50
2020,11,08,16,48,2.80
2020,11,08,16,49,3.00
2020,11,08,16,50,2.00
2020,11,08,16,51,1.00
2020,11,08,16,52,1.00
2020,11,08,16,53,1.70
2020,11,08,16,54,1.90
2020,11,08,16,55,2.50
2020,11,08,16,56,2.90
2020,11,08,16,57,2.50
2020,11,08,16,58,2.00
2020,11,08,16,59,1.80
2020,11,08,17,00,2.10
2020,11,08,17,01,1.90
2020,11,08,17,02,2.60
2020,11,08,17,03,2.10
2020,11,08,17,04,1.60
2020,11,08,17,05,1.00
2020,11,08,17,06,0.00
2020,11,08,17,07,0.00
2020,11,08,17,08,0.60
2020,11,08,17,09,1.20
2020,11,08,17,10,2.30
2020,11,08,17,11,1.80
2020,11,08,17,12,2.80
2020,11,08,17,13,2.60
2020,11,08,17,14,2.50
2020,11,08,17,15,2.30
2020,11,08,17,16,1.50
2020,11,08,17,17,2.10
2020,11,08,17,18,1.60
2020,11,08,17,19,1.60
2020,11,08,17,20,2.00
2020,11,08,17,21,1.30
2020,11,08,17,22,2.20
2020,11,08,17,23,1.80
2020,11,08,17,24,2.30
2020,11,08,17,25,2.50
2020,11,08,17,26,2.30
2020,11,08,17,27,3.10
2020,11,08,17,28,2.30
2020,11,08,17,29,2.60
2020,11,08,17,30,1.60
2020,11,08,17,31,2.00
2020,11,08,17,32,2.00
2020,11,08,17,33,1.40
2020,11,08,17,34,1.30
2020,11,08,17,35,0.90
2020,11,08,17,36,1.50
2020,11,08,17,37,2.20
2020,11,08,17,38,2.50
2020,11,08,17,39,2.50
2020,11,08,17,40,2.10
2020,11,08,17,41,1.90
2020,11,08,17,42,2.30
2020,11,08,17,43,2.10
2020,11,08,17,44,1.70
2020,11,08,17,45,2.20
2020,11,08,17,46,2.80
2020,11,08,17,47,3.00
2020,11,08,17,48,3.30
2020,11,08,17,49,2.60
2020,11,08,17,50,3.20
2020,11,08,17,51,3.20
2020,11,08,17,52,3.20
2020,11,08,17,53,3.10
2020,11,08,17,54,2.30
2020,11,08,17,55,1.50
2020,11,08,17,56,1.80
2020,11,08,17,57,1.90
2020,11,08,17,58,1.60